Regional Weather Roundup
Issued by NWS

Home | Current Version | Previous Version | Text Only | Print | Product List | Glossary On
Versions: 1 2 3 4 5 6 7 8 9 10 11 12 13 14 15 16 17 18 19 20 21 22 23 24 25 26 27 28 29 30 31 32 33 34 35 36 37 38 39 40 41 42 43 44 45 46 47 48 49 50
000
ASUS45 KABQ 270610
RWRNM
NEW MEXICO REGIONAL WEATHER ROUNDUP
NATIONAL WEATHER SERVICE ALBUQUERQUE NM
1200 AM MDT TUE SEP 27 2016

NOTE: "FAIR" MEANS FEW OR NO CLOUDS BELOW 12,000 FEET AGL WITH NO
       SIGNIFICANT WEATHER OR OBSTRUCTIONS TO VISION.

      THIS PRODUCT IS RELEASED AS TWO VERSIONS.  ONE VERSION NEAR
      THE TOP OF THE HOUR CONTAINING PRELIMINARY DATA FROM ALBUQUERQUE
      AND OTHER STATIONS.  A FINAL VERSION WITH ADDITIONAL DATA IS
      ISSUED ABOUT 10 MINUTES AFTER THE HOUR.

NMZ501-503-504-510>518-270700-
NORTHWEST PLATEAU/NORTHCENTRAL MOUNTAINS

CITY           SKY/WX    TMP DP  RH WIND       PRES   REMARKS
FARMINGTON     FAIR      58  32  37 NE6       30.30R
6HR MIN TEMP:  58; 6HR MAX TEMP:  74;

LOS ALAMOS     FAIR      53  29  39 S8        30.44R
SANTA FE       FAIR      50  32  50 E6        30.40R
6HR MIN TEMP:  50; 6HR MAX TEMP:  66;

TAOS           FAIR      45  28  53 E5        30.44R
ANGEL FIRE     FAIR      32  29  87 CALM      30.50S

$$
NMZ402-403-502-505>509-270700-
WESTCENTRAL MOUNTAINS/SOUTHWEST MOUNTAINS

CITY           SKY/WX    TMP DP  RH WIND       PRES   REMARKS
GALLUP         FAIR      50  26  39 E7        30.36S
6HR MIN TEMP:  48; 6HR MAX TEMP:  72;

SILVER CITY    CLOUDY    48  47  95 CALM      30.33F

$$
NMZ407-409-411-412-270700-
SOUTHERN DESERTS

CITY           SKY/WX    TMP DP  RH WIND       PRES   REMARKS
DEMING         CLOUDY    53  51  93 E8        30.31F
6HR MIN TEMP:  53; 6HR MAX TEMP:  60; 6HR PCP:  0.03;

LAS CRUCES     CLOUDY    54  50  86 CALM      30.33F
HOLLOMAN AFB   LGT RAIN  55  55  98 E6        30.31S
ALAMOGORDO     LGT RAIN  55  52  88 CALM        N/A
T OR C         MOCLDY    53  50  89 CALM      30.34S
6HR MIN TEMP:  52; 6HR MAX TEMP:  68; 6HR PCP:  0.14;


$$
NMZ519>523-270700-
CENTRAL VALLEYS/CENTRAL HIGHLANDS

CITY           SKY/WX    TMP DP  RH WIND       PRES   REMARKS
ALBUQUERQUE    FAIR      57  34  41 E9        30.34S
6HR MIN TEMP:  57; 6HR MAX TEMP:  72;

DOUBLE EAGLE   FAIR      49  32  52 CALM      30.37S
MORIARTY ARPT  FAIR      38  30  74 CALM      30.41S
6HR MIN TEMP:  38; 6HR MAX TEMP:  66;

CLINES CORNERS FAIR      46  34  62 SW9       30.43F
6HR MIN TEMP:  44; 6HR MAX TEMP:  61;

BELEN          FAIR      58  33  38 S8        30.34R
6HR MIN TEMP:  58; 6HR MAX TEMP:  72;

SOCORRO        CLOUDY    57  42  57 SE10      30.33S
6HR MIN TEMP:  57; 6HR MAX TEMP:  72;


$$
NMZ524>526-539-540-270700-
SOUTHCENTRAL MOUNTAINS

CITY           SKY/WX    TMP DP  RH WIND       PRES   REMARKS
RUIDOSO        FAIR      48  39  71 S5        30.44S

$$
NMZ527>531-270700-
NORTHEAST HIGHLANDS/NORTHEAST PLAINS

CITY           SKY/WX    TMP DP  RH WIND       PRES   REMARKS
LAS VEGAS      FAIR      46  30  53 SW5       30.42S
6HR MIN TEMP:  42; 6HR MAX TEMP:  63;

RATON          FAIR      45  34  65 N8        30.38S
6HR MIN TEMP:  44; 6HR MAX TEMP:  68;

CLAYTON        FAIR      53  37  54 SW8       30.31F
6HR MIN TEMP:  49; 6HR MAX TEMP:  68;


$$
NMZ532>537-270700-
EASTCENTRAL PLAINS

CITY           SKY/WX    TMP DP  RH WIND       PRES   REMARKS
TUCUMCARI      FAIR      53  38  56 SW7       30.30S
6HR MIN TEMP:  53; 6HR MAX TEMP:  74;

CANNON AFB     CLEAR     55  43  63 W3        30.32S
6HR MIN TEMP:  55; 6HR MAX TEMP:  66;

CLOVIS AIRPORT FAIR      54  41  62 W5        30.32S

$$
NMZ028-029-538-270700-
SOUTHEAST PLAINS

CITY           SKY/WX    TMP DP  RH WIND       PRES   REMARKS
ROSWELL        FAIR      54  47  77 SW3       30.30S
6HR MIN TEMP:  53; 6HR MAX TEMP:  66;

ARTESIA        FAIR      54  54 100 S6        30.31S
CARLSBAD       CLOUDY    59  53  80 CALM      30.30S
6HR MIN TEMP:  57; 6HR MAX TEMP:  60; 6HR PCP: TRACE;

HOBBS          FAIR      57  57 100 CALM      30.32S


$$




USA.gov is the U.S. government's official web portal to all federal, state and local government web resources and services.